Location: Newark
(15.4608°S, 41.1635°W)
Time: 22:20:13
(UTC+00:00)

Explorer 11/Cluster Stage 4 - Pass Details

Date: 06 August 2021
Orbit: 467 x 1256 km, 28.8° (Epoch: 24 September)

Event Time Altitude Azimuth Distance (km) Brightness Sun altitude
Rises 21:33:12 0° 261° (W) 3,256 11.1 -14.3°
Reaches altitude 10° 21:36:27 10° 246° (WSW) 2,168 9.6 -15.0°
Maximum altitude 21:40:12 21° 197° (SSW) 1,416 7.9 -15.9°
Enters shadow 21:42:31 14° 158° (SSE) 1,628 7.9 -16.5°
